sat.trackr.live / text

‹ back to catalog

CUTE-1 (CO-55)

NORAD 27844 · 2003-031E

PAYLOAD ACTIVE UNKNOWN

§ Identity

Operator
Country
JPN
Launch date
2003-06-30
Launch site
PLMSC
Launch vehicle
Mass (kg)
RCS (m²)
0.07

Purposes: comms, tech_demo

External: N2YO · Heavens-Above · Gunter

§ Orbital elements

Epoch: 2026-09-19T07:23:53.219040Z

Period
101.10 min
Inclination
98.6773°
Eccentricity
0.0008369
Mean motion
14.24383016 rev/d
Perigee alt
804.6 km
Apogee alt
816.6 km
Semi-major
7,188.7 km
B*
9.5427e-5
RAAN
269.7000°
Arg perigee
273.0739°
Mean anomaly
86.9482°
Rev number
20,507

§ Raw data

CUTE-1 (CO-55)1 27844U 03031E   26262.30825485  .00000177  00000+0  95427-4 0  99902 27844  98.6773 269.7000 0008369 273.0739  86.9482 14.24383016205071

JSON: /api/v1/satellites/27844 · /tle

For live sub-satellite position, see the globe view (requires WebGL).

§ Visibility from observer

Set your observer location to see the next 7 days of passes ≥ 10°. The values pass through the URL so the page stays shareable.

No JS? Fill the form by hand. The geolocation button needs JavaScript.

§ Radio — SatNOGS DB

ModeDescriptionDownlinkUplink
AFSK Mode U TLM 437.470 MHz
CW Mode U TLM 436.838 MHz
CW PE0SAT - CW Beacon 436.836 MHz

3 transmitters · refreshed weekly from db.satnogs.org